Telluride, CO

4:53 AM MDT on September 21, 2017 (GMT -0600)
Telluride Regional

Weather History for KTEX - December, 2012

Change the Weather History Date:

Friday, December 21, 2012

  Actual Average Record
Temperature  
Mean Temperature 33 °F -  
Max Temperature 42 °F 31 °F 44 °F (2005)
Min Temperature 24 °F 12 °F 5 °F (1998)
Degree Days  
Heating Degree Days 32    
Moisture  
Dew Point 4 °F    
Average Humidity 31    
Maximum Humidity 47    
Minimum Humidity 15    
Precipitation  
Precipitation 0.00 in - - ()
Sea Level Pressure  
Sea Level Pressure 30.24 in    
Wind  
Wind Speed 5 mph (SE)    
Max Wind Speed 14 mph    
Max Gust Speed 18 mph    
Visibility 10 miles    
Events      
Averages and records for this station are not official NWS values.
T = Trace of Precipitation, MM = Missing Value Source: NWS Daily Summary

Daily Weather History Graph

Daily Weather History Graph

Search for Another Location

Airport or City:

Trip Planner

Search our weather history database for the weather conditions in past years. The results will help you decide how hot, cold, wet, or windy it might be!

Date:

Astronomy

Dec. 21, 2012 Rise Set
Actual Time 7:24 AM MST 4:56 PM MST
Civil Twilight 6:54 AM MST 5:25 PM MST
Nautical Twilight 6:21 AM MST 5:58 PM MST
Astronomical Twilight 5:49 AM MST 6:30 PM MST
Moon 12:40 PM MST 1:18 AM MST
Length of Visible Light 10h 30m
Length of Day
9h 31m
Waxing Gibbous, 65% of the Moon is Illuminated
Dec 21
Waxing Gibbous
Dec 28
Full
Jan 4
Last Quarter
Jan 11
New
Jan 18
First Quarter

Hourly Weather History & Observations

Time (MST) Temp. Windchill Dew Point Humidity Pressure Visibility Wind Dir Wind Speed Gust Speed Precip Events Conditions
6:35 AM 26.6 °F 18.2 °F 5.0 °F 40% 30.31 in 10.0 mi ESE 8.1 mph - N/A   Clear
6:55 AM 24.8 °F 17.9 °F 5.0 °F 43% 30.31 in 10.0 mi SE 5.8 mph - N/A   Clear
7:15 AM 24.8 °F 17.9 °F 3.2 °F 40% 30.31 in 10.0 mi ESE 5.8 mph - N/A   Clear
7:35 AM 24.8 °F 17.9 °F 3.2 °F 40% 30.31 in 10.0 mi ESE 5.8 mph - N/A   Clear
7:55 AM 26.6 °F 18.2 °F 3.2 °F 37% 30.30 in 10.0 mi ESE 8.1 mph - N/A   Clear
8:15 AM 26.6 °F 20.0 °F 3.2 °F 37% 30.30 in 10.0 mi ESE 5.8 mph 9.2 mph N/A   Clear
8:35 AM 28.4 °F 22.2 °F 5.0 °F 37% 30.29 in 10.0 mi SSE 5.8 mph - N/A   Clear
8:55 AM 28.4 °F 21.2 °F 5.0 °F 37% 30.29 in 10.0 mi SE 6.9 mph - N/A   Clear
9:15 AM 30.2 °F - 3.2 °F 32% 30.29 in 10.0 mi Calm Calm - N/A   Clear
9:35 AM 32.0 °F - 1.4 °F 27% 30.29 in 10.0 mi Calm Calm - N/A   Clear
9:55 AM 35.6 °F - -4.0 °F 18% 30.29 in 10.0 mi Calm Calm - N/A   Clear
10:15 AM 37.4 °F 33.8 °F -2.2 °F 19% 30.29 in 10.0 mi East 4.6 mph - N/A   Clear
10:35 AM 37.4 °F - -4.0 °F 17% 30.28 in 10.0 mi Calm Calm - N/A   Clear
10:55 AM 41.0 °F 37.1 °F -4.0 °F 15% 30.28 in 10.0 mi East 5.8 mph - N/A   Clear
11:15 AM 41.0 °F - -0.4 °F 18% 30.26 in 10.0 mi Calm Calm - N/A   Clear
11:35 AM 41.0 °F 36.4 °F 1.4 °F 19% 30.26 in 10.0 mi East 6.9 mph - N/A   Clear
11:55 AM 41.0 °F 35.8 °F 1.4 °F 19% 30.24 in 10.0 mi ESE 8.1 mph - N/A   Clear
12:15 PM 41.0 °F 39.0 °F 1.4 °F 19% 30.24 in 10.0 mi SSE 3.5 mph 17.3 mph N/A   Clear
12:35 PM 42.8 °F 38.6 °F 3.2 °F 19% 30.23 in 10.0 mi SSE 6.9 mph - N/A   Clear
12:55 PM 37.4 °F 32.8 °F 10.4 °F 33% 30.23 in 10.0 mi WSW 5.8 mph - N/A   Clear
1:15 PM 39.2 °F - 8.6 °F 28% 30.22 in 10.0 mi Calm Calm - N/A   Clear
1:35 PM 41.0 °F - 8.6 °F 26% 30.21 in 10.0 mi Calm Calm - N/A   Clear
1:55 PM 41.0 °F 34.7 °F 1.4 °F 19% 30.20 in 10.0 mi SSE 10.4 mph - N/A   Clear
2:15 PM 42.8 °F 37.5 °F 1.4 °F 18% 30.20 in 10.0 mi SE 9.2 mph - N/A   Clear
2:35 PM 41.0 °F 34.3 °F 1.4 °F 19% 30.19 in 10.0 mi SSE 11.5 mph 18.4 mph N/A   Clear
2:55 PM 41.0 °F 38.0 °F 3.2 °F 21% 30.19 in 10.0 mi SSE 4.6 mph - N/A   Clear
3:15 PM 41.0 °F 39.0 °F 5.0 °F 23% 30.20 in 10.0 mi SW 3.5 mph - N/A   Clear
3:35 PM 35.6 °F 29.9 °F 10.4 °F 35% 30.19 in 10.0 mi WSW 6.9 mph - N/A   Clear
3:55 PM 35.6 °F 29.9 °F 10.4 °F 35% 30.20 in 10.0 mi WSW 6.9 mph - N/A   Clear
4:15 PM 33.8 °F 24.3 °F 10.4 °F 38% 30.20 in 10.0 mi WSW 13.8 mph - N/A   Clear
4:35 PM 32.0 °F 25.6 °F 8.6 °F 38% 30.21 in 10.0 mi West 6.9 mph - N/A   Clear
4:55 PM 32.0 °F 26.4 °F 8.6 °F 38% 30.21 in 10.0 mi West 5.8 mph - N/A   Clear
5:15 PM 32.0 °F 28.7 °F 10.4 °F 41% 30.22 in 10.0 mi WSW 3.5 mph - N/A   Clear
5:35 PM 30.2 °F 26.7 °F 10.4 °F 44% 30.24 in 10.0 mi West 3.5 mph - N/A   Clear
5:55 PM 30.2 °F - 10.4 °F 44% 30.24 in 10.0 mi Calm Calm - N/A   Clear
6:15 PM 28.4 °F - 10.4 °F 47% 30.24 in 10.0 mi Calm Calm - N/A   Clear
6:35 PM 30.2 °F - 10.4 °F 44% 30.23 in 10.0 mi Calm Calm - N/A   Clear
6:55 PM 32.0 °F 26.4 °F 8.6 °F 38% 30.23 in 10.0 mi East 5.8 mph - N/A   Clear
7:15 PM 30.2 °F 24.3 °F 6.8 °F 37% 30.23 in 10.0 mi SE 5.8 mph - N/A   Clear
7:35 PM 30.2 °F 26.7 °F 6.8 °F 37% 30.24 in 10.0 mi SSE 3.5 mph - N/A   Clear
7:55 PM 28.4 °F 23.3 °F 6.8 °F 40% 30.25 in 10.0 mi SE 4.6 mph - N/A   Clear
8:15 PM 30.2 °F - 5.0 °F 34% 30.24 in 10.0 mi Calm Calm - N/A   Clear
8:35 PM 30.2 °F 25.4 °F 3.2 °F 32% 30.24 in 10.0 mi ESE 4.6 mph - N/A   Clear
8:55 PM 28.4 °F 23.3 °F 3.2 °F 34% 30.25 in 10.0 mi SE 4.6 mph - N/A   Clear
9:15 PM 28.4 °F 22.2 °F 5.0 °F 37% 30.24 in 10.0 mi SE 5.8 mph - N/A   Clear
9:35 PM 28.4 °F 22.2 °F 5.0 °F 37% 30.25 in 10.0 mi SE 5.8 mph - N/A   Clear
9:55 PM 28.4 °F 21.2 °F 3.2 °F 34% 30.24 in 10.0 mi SE 6.9 mph - N/A   Clear
10:15 PM 28.4 °F 23.3 °F 1.4 °F 31% 30.24 in 10.0 mi SE 4.6 mph - N/A   Clear
10:35 PM 28.4 °F 20.4 °F 1.4 °F 31% 30.24 in 10.0 mi SE 8.1 mph - N/A   Clear
10:55 PM 28.4 °F 20.4 °F 1.4 °F 31% 30.23 in 10.0 mi SE 8.1 mph - N/A   Clear
11:15 PM 30.2 °F 21.9 °F -0.4 °F 27% 30.23 in 10.0 mi SE 9.2 mph - N/A   Clear
11:35 PM 28.4 °F 22.2 °F -0.4 °F 29% 30.22 in 10.0 mi SE 5.8 mph - N/A   Clear
11:55 PM 28.4 °F 21.2 °F -0.4 °F 29% 30.21 in 10.0 mi ESE 6.9 mph - N/A   Clear